Regional Weather Roundup
Issued by NWS

Home | Current Version | Previous Version | Text Only | Print | Product List | Glossary On
Versions: 1 2 3 4 5 6 7 8 9 10 11 12 13 14 15 16 17 18 19 20 21 22 23 24 25 26 27 28 29 30 31 32 33 34 35 36 37 38 39 40 41 42 43 44 45 46 47 48 49 50
000
ASUS43 KMPX 280210
RWRMN
WEATHER ROUNDUP FOR MINNESOTA
NATIONAL WEATHER SERVICE TWIN CITIES/CHANHASSEN MN
900 PM CDT WED MAY 27 2015


NOTE: "FAIR" INDICATES FEW OR NO CLOUDS BELOW 12,000 FEET WITH NO
SIGNIFICANT WEATHER AND/OR OBSTRUCTIONS TO VISIBILITY. N/A MEANS
CURRENT SKY AND/OR WEATHER CONDITIONS ARE NOT AVAILABLE.

MNZ060>063-068>070-280300-
   Twin Cities Metro

CITY           SKY/WX    TMP DP  RH WIND       PRES   REMARKS
TWIN CITIES    PTCLDY    79  51  37 CALM      29.98R
ST PAUL        CLEAR     71  57  61 E3        29.98R
CRYSTAL        CLEAR     70  58  65 CALM      29.97R
BLAINE         MOCLDY    72  57  60 CALM      29.98R
LAKEVILLE      PTCLDY    72  59  64 S3        29.99R
EDEN PRAIRIE   PTCLDY    75  53  46 CALM      29.97R
SOUTH ST PAUL  CLEAR     73  58  57 CALM      29.98R
LAKE ELMO      FAIR      68  59  73 CALM      30.00R
$$
MNZ001>005-007-008-013>017-022>024-027-028-280300-
   Northwest Minnesota

CITY           SKY/WX    TMP DP  RH WIND       PRES   REMARKS
BEMIDJI        PTCLDY    67  52  57 NE3       29.98S
HALLOCK        PTCLDY    66  46  48 N6        29.98S
ROSEAU         CLEAR     64  48  55 E7        29.99S
WARROAD        CLEAR     61  54  77 E8        30.01R
THIEF RVR FALL MOCLDY    70  48  46 N5        29.99R
CROOKSTON      MOCLDY    72  52  49 N3        29.98R
FOSSTON        MOCLDY    66  50  55 CALM      29.99R
DETROIT LAKES  MOCLDY    70  52  52 CALM      30.00R
MOORHEAD       MOCLDY    73  54  49 NE3       29.97R
PARK RAPIDS    PTCLDY    72  52  49 NW3       29.98R
MAHNOMEN       FAIR      71  53  51 W6        29.98R
$$
MNZ006-009>011-018-025>026-280300-
   North Central Minnesota

CITY           SKY/WX    TMP DP  RH WIND       PRES   REMARKS
BAUDETTE       CLEAR     62  47  57 N5        29.99S
FLAG ISLAND    CLEAR     63  46  55 NE5       29.99S
INTL FALLS     CLEAR     65  45  48 NE3       30.00R
WASKISH        CLEAR     64  46  52 CALM      29.99S
BIG FORK       CLEAR     64  48  55 CALM      30.00R
LONGVILLE      PTCLDY    64  55  72 CALM      29.98S
GRAND RAPIDS   CLEAR     64  52  63 CALM      29.99R
CRANE LAKE     CLEAR     61  48  63 CALM      30.01R
COOK           CLEAR     66  50  55 CALM      30.00R
WALKER         FAIR      68  52  56 CALM      29.98S
$$
MNZ012-019>021-037-280300-
   Northeast Minnesota

CITY           SKY/WX    TMP DP  RH WIND       PRES   REMARKS
DULUTH         PTCLDY    73  47  39 NW5       29.98R
HIBBING        CLEAR     66  47  50 N6        29.99R
EVELETH        CLEAR     70  46  43 N5        30.00R
DULUTH HARBOR  CLEAR     70  55  60 SE3       29.96R
TWO HARBORS    CLEAR     70  55  60 CALM      29.95R
SILVER BAY     CLEAR     66  52  59 CALM      29.96R
GRAND MARAIS     N/A     51  42  71 NE10      29.99R
G MARAIS ARPRT CLEAR     61  48  63 NE3       30.03R
$$
MNZ029>031-032-039>041-046>048-054>057-064-280300-
   West Central Minnesota

CITY           SKY/WX    TMP DP  RH WIND       PRES   REMARKS
FERGUS FALLS   MOCLDY    75  50  41 CALM      29.96R
WHEATON        MOCLDY    72  57  60 E5        29.97R
MORRIS         MOCLDY    73  48  40 SE3       29.97R
ALEXANDRIA     MOCLDY    72  55  55 CALM      30.00R
ELBOW LAKE     FAIR      72  54  53 E5        29.97R
WADENA         MOCLDY    66  54  63 CALM      29.99R
GLENWOOD       MOCLDY    75  52  43 CALM      30.00R
APPLETON       PTCLDY    75  50  41 E3        29.97R
BENSON         MOCLDY    73  54  49 CALM      29.97S
ORTONVILLE     PTCLDY    75  54  46 E5        29.97R
MADISON        CLEAR     73  50  43 E7        29.97R
WILLMAR        FAIR      75  54  46 CALM      29.99S
$$
MNZ033>034-036-042>043-049>051-058-059-280300-
   Central Minnesota

CITY           SKY/WX    TMP DP  RH WIND       PRES   REMARKS
ST CLOUD       PTCLDY    70  55  59 CALM      29.97R
SAUK CENTRE    FAIR      71  55  56 CALM      29.99R
PAYNESVILLE    PTCLDY    68  54  62 CALM      29.99R
AITKIN         CLEAR     68  55  64 CALM      29.97R
PINE RIVER     PTCLDY    68  54  60 CALM      30.01R
BRAINERD       PTCLDY    68  54  60 CALM      29.98R
STAPLES        PTCLDY    70  54  56 CALM      29.99R
LONG PRAIRIE   FAIR      70  55  60 N3        30.00R
LITTLE FALLS   PTCLDY    68  50  52 CALM      29.99R
LITCHFIELD     PTCLDY    72  50  46 CALM      29.99R
BUFFALO        PTCLDY    70  58  65 CALM      29.99R
MAPLE LAKE     PTCLDY    68  60  74 CALM      29.99R
$$
MNZ037-044-045-052-053-280300-
   East Central Minnesota

CITY           SKY/WX    TMP DP  RH WIND       PRES   REMARKS
PRINCETON      PTCLDY    70  61  73 CALM      29.98R
MORA           PTCLDY    64  54  68 CALM      30.00R
CAMBRIDGE      PTCLDY    73  57  56 CALM      29.97R
RUSH CITY      PTCLDY    65  61  86 CALM      29.98S
MOOSE LAKE     CLEAR     63  54  72 CALM      29.96R
HINCKLEY       FAIR      66  59  77 CALM      29.98R
CLOQUET        CLEAR     70  46  43 W6        29.99R
MCGREGOR       CLEAR     68  54  60 CALM      29.98R
$$
MNZ071>073-080-081-089-090-097-098-280300-
   Southwest Minnesota

CITY           SKY/WX    TMP DP  RH WIND       PRES   REMARKS
MONTEVIDEO     PTCLDY    75  46  35 CALM      29.98R
GRANITE FALLS  PTCLDY    79  47  32 CALM      29.99R
CANBY          CLEAR     72  49  44 SE3       29.99R
MARSHALL       PTCLDY    79  46  31 S6        29.98R
REDWOOD FALLS  PTCLDY    77  51  40 CALM      29.98R
OLIVIA         MOCLDY    73  46  38 CALM      29.98R
PIPESTONE      PTCLDY    72  52  49 SW6       30.02R
WINDOM         PTCLDY    73  52  46 CALM      30.01R
WORTHINGTON    PTCLDY    73  48  40 SW7       30.02R
JACKSON        MOCLDY    75  52  43 S3        30.02R
TRACY          CLEAR     72  53  50 S5        30.00R
SLAYTON        PTCLDY    71  49  44 CALM      30.03R
$$
MNZ065>067-074>077-082>085-091>093-280300-
   South Central Minnesota

CITY           SKY/WX    TMP DP  RH WIND       PRES   REMARKS
MANKATO        PTCLDY    75  54  46 SE5       29.99S
NEW ULM        PTCLDY    73  54  49 S3        29.99R
ST JAMES       PTCLDY    75  61  60 CALM      30.00R
FAIRMONT       PTCLDY    73  54  49 S5        30.01R
GLENCOE        PTCLDY    70  60  71 CALM      29.98R
FARIBAULT      PTCLDY    70  61  73 CALM      30.01R
OWATONNA       CLEAR     72  59  64 CALM      30.01R
WASECA         CLEAR     70  59  68 CALM      30.02R
ALBERT LEA     CLEAR     72  57  60 CALM      30.02R
$$
MNZ078>079-086>088-094>096-280300-
   Southeast Minnesota

CITY           SKY/WX    TMP DP  RH WIND       PRES   REMARKS
ROCHESTER      CLEAR     72  59  63 SW5       30.03R
RED WING       CLEAR     68  63  83 CALM      29.98R
STANTON        CLEAR     71  60  69 CALM      29.98S
DODGE CENTER   CLEAR     73  59  60 CALM      30.02S
WINONA         CLEAR     70  63  78 CALM      30.01R
AUSTIN         CLEAR     70  55  60 CALM      30.02R
PRESTON        CLEAR     72  57  59 S3        30.04R
$$
ABBREVIATIONS USED IN REMARKS
   TC - TEMPERATURES IN CELSIUS
  WCI - WIND CHILL INDEX
   HX - HEAT INDEX
  VSB - VISIBILITY
$$


USA.gov is the U.S. government's official web portal to all federal, state and local government web resources and services.